This demonstration page uses our WeatherBlox Daily Observations layout. Learn more.

Left ArrowRight Arrow

Hourly Observations for January 10, 2016

Temp ( °F °C ) Dew Point ( °F °C ) Humidity (%) Winds ( mph kmh ) Pressure ( in mb ) Visibility ( mi km ) Precip ( " mm )
12:51 am 00:51 Clear 32 undefined 29 -1.7 88 88 N N/A 30.15 1021 10 16 N/A
1:51 am 01:51 Clear 31 -0.6 28 -2.2 89 89 N N/A 30.14 1021 10 16 N/A
2:51 am 02:51 Clear 30 -1.1 28 -2.2 92 92 W 3 6 30.16 1021 10 16 N/A
3:51 am 03:51 Clear 29 -1.7 27 -2.8 92 92 N N/A 30.14 1021 10 16 N/A
4:51 am 04:51 Clear 29 -1.7 27 -2.8 92 92 N N/A 30.14 1021 10 16 N/A
5:51 am 05:51 Clear 28 -2.2 26 -3.3 92 92 N N/A 30.16 1021 10 16 N/A
6:51 am 06:51 Clear 29 -1.7 27 -2.8 92 92 N N/A 30.18 1022 10 16 N/A
7:51 am 07:51 Sunny 30 -1.1 28 -2.2 92 92 N N/A 30.19 1022 10 16 N/A
8:51 am 08:51 Sunny 32 undefined 30 -1.1 92 92 N N/A 30.19 1023 10 16 N/A
9:51 am 09:51 Sunny 35 1.7 30 -1.1 82 82 SSW 3 6 30.20 1023 10 16 N/A
10:01 am 10:01 Hazy 35 1.7 29 -1.7 78 78 N N/A 30.27 1025 1 2 N/A
10:09 am 10:09 Sunny 37 2.8 30 -1.1 76 76 SSW 3 6 30.27 1025 10 16 N/A
10:51 am 10:51 Sunny 40 4.4 30 -1.1 68 68 S 8 13 30.19 1022 10 16 N/A
11:51 am 11:51 Sunny 40 4.4 32 undefined 73 73 N N/A 30.16 1022 10 16 N/A
12:51 pm 12:51 Sunny 42 5.6 31 -0.6 65 65 VRB 3 6 30.13 1020 10 16 N/A
1:44 pm 13:44 Hazy 45 7.2 31 -0.6 58 58 VRB 3 6 30.15 1021 1 1 N/A
1:51 pm 13:51 Hazy 44 6.7 31 -0.6 60 60 VRB 3 6 30.11 1020 1 1 N/A
1:56 pm 13:56 Hazy 45 7.2 31 -0.6 58 58 W 6 9 30.15 1021 4 6 N/A
2:51 pm 14:51 Sunny 45 7.2 31 -0.6 58 58 WSW 5 7 30.08 1019 10 16 N/A
3:03 pm 15:03 Hazy 45 7.2 31 -0.6 58 58 W 3 6 30.12 1020 1 2 N/A
3:06 pm 15:06 Hazy 45 7.2 30 -1.1 56 56 N N/A 30.12 1020 5 8 N/A
3:51 pm 15:51 Mostly Cloudy 46 7.8 31 -0.6 56 56 W 3 6 30.07 1018 10 16 N/A
4:51 pm 16:51 Sunny 46 7.8 31 -0.6 56 56 W 7 11 30.07 1018 10 16 N/A
5:51 pm 17:51 Partly Cloudy 42 5.6 33 0.6 71 71 W 5 7 30.09 1019 10 16 N/A
6:30 pm 18:30 Mostly Cloudy with Haze 40 4.4 34 1.1 79 79 NW 3 6 30.15 1021 1 2 N/A
6:33 pm 18:33 Mostly Cloudy with Haze 40 4.4 34 1.1 79 79 N N/A 30.15 1021 5 8 N/A
6:51 pm 18:51 Mostly Clear 39 3.9 34 1.1 82 82 NW 5 7 30.10 1019 10 16 N/A
7:51 pm 19:51 Mostly Clear 37 2.8 33 0.6 86 86 WSW 3 6 30.11 1020 10 16 N/A
8:51 pm 20:51 Mostly Cloudy 38 3.3 34 1.1 86 86 WNW 5 7 30.14 1021 10 16 N/A
9:51 pm 21:51 Mostly Cloudy 39 3.9 34 1.1 82 82 WNW 7 11 30.14 1021 10 16 N/A
10:51 pm 22:51 Mostly Cloudy 37 2.8 34 1.1 89 89 N 6 9 30.14 1021 10 16 N/A
11:51 pm 23:51 Cloudy 38 3.3 34 1.1 86 86 NE 5 7 30.13 1020 10 16 N/A

Powered by AerisWeather